Regional Weather Roundup
Issued by NWS Newport/Morehead, NC

Home | Current Version | Previous Version | Text Only | Print | Product List | Glossary On
Versions: 1 2 3 4 5 6 7 8 9 10 11 12 13 14 15 16 17 18 19 20 21 22 23 24 25 26 27 28 29 30 31 32 33 34 35 36 37 38 39 40 41 42 43 44 45 46 47 48 49 50
190
ASUS42 KMHX 262225
RWRMHX
WEATHER ROUNDUP FOR EASTERN NORTH CAROLINA
NATIONAL WEATHER SERVICE NEWPORT/MOREHEAD CITY NC
600 PM EDT MON SEP 26 2016

NOTE: "FAIR" INDICATES FEW OR NO CLOUDS BELOW 12,000 FEET
WITH NO SIGNIFICANT WEATHER AND/OR OBSTRUCTIONS TO VISIBILITY

NCZ015>017-031-032-045>047-102-103-262300-
NORTH COAST

CITY           SKY/WX    TMP DP  RH WIND       PRES   REMARKS
EDENTON        NOT AVBL
ELIZABETH CITY PTSUNNY   75  64  68 SE6       30.05F
KITTY HAWK     CLOUDY    76  67  74 SE7       30.04F
MANTEO         CLEAR     75  65  70 S8        30.05F

$$

NCZ045>047-081-094-103-104-262300-
CENTRAL COAST

CITY           SKY/WX    TMP DP  RH WIND       PRES   REMARKS
FRISCO         CLEAR     80  62  54 SE10      30.05F

$$

NCZ095-097-098-100-101-262300-
SOUTHERN COAST

CITY           SKY/WX    TMP DP  RH WIND       PRES   REMARKS
BEAUFORT       SUNNY     79  69  71 SE7       30.04S
CEDAR ISLAND   NOT AVBL
JACKSONVILLE   SUNNY     78  66  66 SE8       30.04R
PINEY ISLAND   CLEAR    N/A N/A N/A E7        30.05R
WILMINGTON     SUNNY     78  66  66 E8        30.04S


$$

NCZ011>013-027>030-043-044-078>080-089-090>093-098-262300-
COASTAL PLAIN

CITY           SKY/WX    TMP DP  RH WIND       PRES   REMARKS
AHOSKIE        MOSUNNY   72  65  79 SE3       30.05S
CLINTON        MOSUNNY   80  68  68 CALM      30.03S
ELIZABETHTOWN  SUNNY     80  69  68 SE3       30.02S
GOLDSBORO      MOSUNNY   79  68  69 E3        30.02S
GREENVILLE     PTSUNNY   77  64  65 SE5       30.06S
HAVELOCK       CLOUDY    77  67  71 NE7       30.05S
KENANSVILLE    MOSUNNY   77  68  73 CALM      30.04R
KINSTON        MOSUNNY   77  64  65 E6        30.04F
NEW BERN       CLOUDY    77  64  64 E6        30.06S
RICHLANDS      CLOUDY    79  68  69 SE8       30.04R
ROCKY MOUNT    CLOUDY    75  65  70 CALM      30.04S
WASHINGTON     CLOUDY    75  64  70 SE3       30.05S
WHITEVILLE     NOT AVBL

$$

AMZ130-135-150-152-154-156-158-170-250-252-270-ANZ085-086-088-633-658-670-262300-
MARINE OBSERVATIONS

STATION/POSITION TIME  TEMP    WIND        PRES    WAVE   SWELL
                       AIR SEA DIR/SP/G            HT/PER HT/PER
                 (UTC) (F)     (DEG/KT/KT) (MB)    (FT/S) (FT/S)
CHESAPEAKE LIGHT NOT AVBL
64 E VA BEACH    2150   75 76  150/ 14/ 17 1017.5    3/ 8   2/ 8
DUCK             2200   76 77  170/ 10/ 12 1016.8
2 E DUCK         2141      77                N/A     3/ 8
OREGON INLET     2200   77 77  140/  5/  7 1017.7
13E OREGON INLT  2200      77                N/A     3/ 7   3/ 7
HATTERAS CG      2200   79 77  130/  8/ 12 1017.4
DIAMOND BUOY     2150   79 79  140/ 12/ 14 1017.5    3/ 8   2/ 8
CAPE LOOKOUT     2200   77     100/ 10/ 11 1016.9
BEAUFORT LAB     2200   77 77  120/  9/ 11 1016.7
30 SE NEW RVR IN 2208   80 83  120/  8/ 10 1016.9
30 SE NEW RVR IN 2155      83                N/A     3/ 8
27 SE WRIGHTSVLE 2208   80 81   90/ 10/ 16 1016.8
5 SE WRIGHTSVLE  2108   79 81  110/ 10/ 14 1018.0
225 S CAPE HAT   2150   79 83  100/ 17/ 19 1016.5    6/ 8   2/ 9
41 SE CHARLESTON 2150   77 82  110/ 12/ 14 1015.0    4/ 9   3/ 9

$$




USA.gov is the U.S. government's official web portal to all federal, state and local government web resources and services.